Date String (YYYY-MM-DD hh:mm:ss) UTC,Instrument flags,absolute air pressure of the measurement (hPa),sample flow rate (lpm),inlet stack bypass flow (lpm),air temperature of the measurement (°C),ambient temperature measured by the external sensor (°C),aerosol sample conditioner tube jacket temperature (°C),OPC LED temperature (°C),internal box temperature (°C),relative humidity of the measurement (%),span deviation,mass concentration of particles derived from Lorenz-Mie calculation of OPC scattering (μg/m³),mass concentration of particles derived from Lorenz-Mie calculation of OPC scattering (μg/m³),mass concentration of particles derived from Lorenz-Mie calculation of OPC scattering (μg/m³)
DateTimeUTC,F1_M11,P_M11,Q1_M11,Q2_M11,T1_M11,T2_M11,T3_M11,T4_M11,T5_M11,U1_M11,ZSPAN_M11,X0_M11,X2_M11,X1_M11
2023-06-20 16:00:00,SystemResetWarning,0828.9,4.99,000.00,029.8,028.1,000.0,038.3,031.3,27.8,0000.0,0015.00,0005.10,0003.87
2023-06-20 16:01:00,SystemResetWarning,0829.0,5.00,000.00,029.8,028.2,000.0,038.3,031.4,29.0,0000.0,0014.82,0005.12,0003.90
2023-06-20 16:02:00,SystemResetWarning,0828.9,5.01,000.00,029.8,028.3,000.0,038.3,031.4,28.3,0000.0,0015.17,0005.14,0003.91
2023-06-20 16:03:00,SystemResetWarning,0828.9,5.00,000.00,029.9,028.4,000.0,038.4,031.4,28.2,0000.0,0015.94,0005.21,0003.93
2023-06-20 16:04:00,SystemResetWarning,0829.0,5.00,000.00,029.9,028.0,000.0,038.3,031.5,28.9,0000.0,0016.09,0005.26,0003.94
2023-06-20 16:05:00,SystemResetWarning,0828.9,4.99,000.00,029.9,026.0,000.0,038.3,031.4,28.5,0000.0,0016.35,0005.31,0003.95
2023-06-20 16:06:00,SystemResetWarning,0828.8,5.01,000.00,029.8,025.3,000.0,038.2,031.3,29.2,0000.0,0016.50,0005.35,0003.96
2023-06-20 16:07:00,SystemResetWarning,0828.7,5.01,000.00,029.8,025.5,000.0,038.2,031.0,30.3,0000.0,0018.03,0005.40,0003.97
2023-06-20 16:08:00,SystemResetWarning,0828.7,5.00,000.00,029.7,025.9,000.0,038.2,030.9,30.2,0000.0,0017.74,0005.46,0004.01
2023-06-20 16:09:00,SystemResetWarning,0828.6,5.00,000.00,029.6,026.3,000.0,038.2,031.0,29.2,0000.0,0018.00,0005.44,0004.02
2023-06-20 16:10:00,SystemResetWarning,0828.6,5.00,000.00,029.6,026.7,000.0,038.2,031.0,28.7,0000.0,0017.96,0005.43,0004.05
2023-06-20 16:11:00,SystemResetWarning,0828.6,4.99,000.00,029.6,027.0,000.0,038.2,031.1,28.9,0000.0,0018.75,0005.57,0004.09
2023-06-20 16:12:00,SystemResetWarning,0828.6,4.99,000.00,029.6,027.3,000.0,038.2,031.1,28.5,0000.0,0019.31,0005.61,0004.11
2023-06-20 16:13:00,SystemResetWarning,0828.6,5.00,000.00,029.7,027.5,000.0,038.2,031.1,28.5,0000.0,0018.96,0005.65,0004.13
2023-06-20 16:14:00,SystemResetWarning,0828.6,5.01,000.00,029.7,027.7,000.0,038.3,031.2,28.6,0000.0,0018.51,0005.68,0004.15
2023-06-20 16:15:00,SystemResetWarning,0828.6,5.00,000.00,029.7,027.9,000.0,038.3,031.2,27.6,0000.0,0018.12,0005.64,0004.18
2023-06-20 16:16:00,SystemResetWarning,0828.6,5.00,000.00,029.7,028.0,000.0,038.3,031.3,27.6,0000.0,0018.04,0005.60,0004.22
2023-06-20 16:17:00,SystemResetWarning,0828.6,5.00,000.00,029.7,028.1,000.0,038.3,031.3,29.2,0000.0,0018.71,0005.61,0004.24
2023-06-20 16:18:00,SystemResetWarning,0828.6,4.99,000.00,029.8,028.2,000.0,038.3,031.3,29.8,0000.0,0017.90,0005.58,0004.26
2023-06-20 16:19:00,SystemResetWarning,0828.7,5.00,000.00,029.8,028.3,000.0,038.3,031.3,28.6,0000.0,0017.66,0005.57,0004.27
2023-06-20 16:20:00,SystemResetWarning,0828.8,4.99,000.00,029.8,028.4,000.0,038.3,031.4,28.5,0000.0,0017.08,0005.60,0004.27
2023-06-20 16:21:00,SystemResetWarning,0828.8,5.00,000.00,029.9,027.1,000.0,038.3,031.4,29.0,0000.0,0016.27,0005.70,0004.26
2023-06-20 16:22:00,SystemResetWarning,0828.8,5.01,000.00,029.8,025.4,000.0,038.2,031.3,26.1,0000.0,0015.18,0005.62,0004.24
2023-06-20 16:23:00,SystemResetWarning,0829.0,5.01,000.00,029.8,025.4,000.0,038.2,031.2,23.3,0000.0,0014.53,0005.57,0004.23
2023-06-20 16:24:00,SystemResetWarning,0829.0,5.01,000.00,029.7,025.7,000.0,038.2,031.0,24.2,0000.0,0015.06,0005.49,0004.20
2023-06-20 16:25:00,SystemResetWarning,0829.0,5.00,000.00,029.6,026.1,000.0,038.2,031.0,25.0,0000.0,0015.15,0005.42,0004.17
2023-06-20 16:26:00,SystemResetWarning,0829.0,5.01,000.00,029.6,026.5,000.0,038.2,031.0,26.2,0000.0,0014.86,0005.34,0004.12
2023-06-20 16:27:00,SystemResetWarning,0828.9,4.99,000.00,029.6,026.9,000.0,038.2,031.1,26.9,0000.0,0014.54,0005.34,0004.07
2023-06-20 16:28:00,SystemResetWarning,0828.9,4.99,000.00,029.6,027.2,000.0,038.2,031.1,28.4,0000.0,0014.04,0005.31,0004.04
2023-06-20 16:29:00,SystemResetWarning,0828.9,5.00,000.00,029.7,027.4,000.0,038.2,031.1,29.4,0000.0,0013.37,0005.31,0004.01
2023-06-20 16:30:00,SystemResetWarning,0828.9,5.01,000.00,029.7,027.6,000.0,038.2,031.2,29.4,0000.0,0013.97,0005.35,0004.02
2023-06-20 16:31:00,SystemResetWarning,0828.9,5.01,000.00,029.7,027.8,000.0,038.2,031.2,28.0,0000.0,0015.08,0005.35,0004.01
2023-06-20 16:32:00,SystemResetWarning,0828.9,5.00,000.00,029.7,028.0,000.0,038.2,031.2,27.6,0000.0,0015.22,0005.29,0004.01
2023-06-20 16:33:00,SystemResetWarning,0828.9,5.00,000.00,029.7,028.1,000.0,038.3,031.2,28.7,0000.0,0015.02,0005.28,0004.02
2023-06-20 16:34:00,SystemResetWarning,0829.0,5.00,000.00,029.8,028.2,000.0,038.3,031.3,28.4,0000.0,0015.20,0005.31,0004.00
2023-06-20 16:35:00,SystemResetWarning,0828.9,5.00,000.00,029.8,028.3,000.0,038.3,031.3,25.6,0000.0,0015.04,0005.31,0003.98
2023-06-20 16:36:00,SystemResetWarning,0829.0,4.99,000.00,029.8,028.0,000.0,038.3,031.4,23.4,0000.0,0015.97,0005.32,0003.98
2023-06-20 16:37:00,SystemResetWarning,0828.9,4.99,000.00,029.8,026.0,000.0,038.2,031.4,19.0,0000.0,0017.12,0005.29,0003.97
2023-06-20 16:38:00,SystemResetWarning,0828.9,5.02,000.00,029.8,025.4,000.0,038.2,031.4,20.6,0000.0,0017.32,0005.27,0003.95
2023-06-20 16:39:00,SystemResetWarning,0829.0,5.00,000.00,029.7,025.6,000.0,038.2,031.1,24.2,0000.0,0017.35,0005.18,0003.90
2023-06-20 16:40:00,SystemResetWarning,0829.0,4.99,000.00,029.7,026.0,000.0,038.2,031.0,27.5,0000.0,0019.61,0005.08,0003.83
2023-06-20 16:41:00,SystemResetWarning,0829.0,5.00,000.00,029.7,026.4,000.0,038.2,031.0,29.5,0000.0,0019.61,0005.03,0003.77
2023-06-20 16:42:00,SystemResetWarning,0829.0,5.01,000.00,029.6,026.8,000.0,038.2,031.0,27.2,0000.0,0018.31,0004.93,0003.72
2023-06-20 16:43:00,SystemResetWarning,0829.0,5.00,000.00,029.7,027.1,000.0,038.2,031.0,29.9,0000.0,0017.84,0004.89,0003.70
2023-06-20 16:44:00,SystemResetWarning,0829.0,5.00,000.00,029.7,027.4,000.0,038.2,031.1,28.9,0000.0,0017.65,0004.82,0003.66
2023-06-20 16:45:00,SystemResetWarning,0829.0,5.00,000.00,029.7,027.6,000.0,038.2,031.1,25.2,0000.0,0017.66,0004.79,0003.64
2023-06-20 16:46:00,SystemResetWarning,0829.0,5.01,000.00,029.7,027.8,000.0,038.2,031.2,25.1,0000.0,0017.30,0004.82,0003.64
2023-06-20 16:47:00,SystemResetWarning,0829.0,5.00,000.00,029.7,027.9,000.0,038.2,031.2,30.6,0000.0,0017.02,0004.79,0003.61
2023-06-20 16:48:00,SystemResetWarning,0828.9,5.00,000.00,029.7,028.0,000.0,038.2,031.2,31.6,0000.0,0016.38,0004.80,0003.58
2023-06-20 16:49:00,SystemResetWarning,0828.9,5.00,000.00,029.7,028.2,000.0,038.3,031.3,27.6,0000.0,0016.54,0004.79,0003.61
2023-06-20 16:50:00,SystemResetWarning,0828.9,5.00,000.00,029.8,028.2,000.0,038.3,031.3,29.3,0000.0,0017.66,0004.89,0003.66
2023-06-20 16:51:00,SystemResetWarning,0829.0,4.98,000.00,029.8,026.8,000.0,038.2,031.3,30.3,0000.0,0015.54,0004.97,0003.70
2023-06-20 16:52:00,SystemResetWarning,0829.0,5.01,000.00,029.8,025.4,000.0,038.2,031.2,31.4,0000.0,0015.36,0004.99,0003.74
2023-06-20 16:53:00,SystemResetWarning,0828.9,5.02,000.00,029.7,025.4,000.0,038.1,031.1,27.2,0000.0,0015.70,0005.03,0003.75
2023-06-20 16:54:00,SystemResetWarning,0828.9,4.99,000.00,029.6,025.8,000.0,038.1,030.9,20.5,0000.0,0015.61,0005.02,0003.76
2023-06-20 16:55:00,SystemResetWarning,0828.9,5.00,000.00,029.6,026.2,000.0,038.1,030.9,21.0,0000.0,0016.64,0005.09,0003.77
2023-06-20 16:56:00,SystemResetWarning,0829.0,5.01,000.00,029.6,026.5,000.0,038.1,030.9,20.5,0000.0,0016.85,0005.05,0003.76
2023-06-20 16:57:00,SystemResetWarning,0828.9,4.99,000.00,029.6,026.9,000.0,038.2,031.0,27.9,0000.0,0017.82,0004.96,0003.70
2023-06-20 16:58:00,SystemResetWarning,0828.9,4.98,000.00,029.6,027.2,000.0,038.2,031.0,30.0,0000.0,0017.04,0004.98,0003.68
2023-06-20 16:59:00,SystemResetWarning,0828.9,5.01,000.00,029.6,027.4,000.0,038.2,031.1,23.6,0000.0,0016.34,0004.96,0003.67
